| time (UTC) | temp F | wind direction | speed MPH | gust MPH | rain 1hr in | rain 24hr in | rain mn in | humidity % | barometer mb |
| 20260901091532 | 55 | 223 | 1.0 | 7.0 | 0.00 | 0.00 | 0.00 | 53 | 1014.4 |
| 20260901090028 | 55 | 238 | 1.0 | 4.0 | 0.00 | 0.00 | 0.00 | 53 | 1014.4 |
| 20260901084524 | 57 | 229 | 1.0 | 6.0 | 0.00 | 0.00 | 0.00 | 50 | 1014.5 |
| 20260901083023 | 56 | 154 | 2.0 | 4.0 | 0.00 | 0.00 | 0.00 | 48 | 1014.5 |
| 20260901081519 | 57 | 173 | 1.0 | 5.0 | 0.00 | 0.00 | 0.00 | 49 | 1014.6 |
| 20260901080032 | 57 | 155 | 2.0 | 4.0 | 0.00 | 0.00 | 0.00 | 47 | 1014.6 |
| 20260901074532 | 58 | 132 | 3.0 | 8.0 | 0.00 | 0.00 | 0.00 | 46 | 1014.9 |
| 20260901073033 | 58 | 149 | 5.0 | 8.0 | 0.00 | 0.00 | 0.00 | 45 | 1014.8 |
| 20260901071533 | 58 | 157 | 3.0 | 7.0 | 0.00 | 0.00 | 0.00 | 45 | 1014.6 |
| 20260901070030 | 59 | 164 | 1.0 | 8.0 | 0.00 | 0.00 | 0.00 | 45 | 1014.6 |
| 20260901064527 | 60 | 148 | 4.0 | 7.0 | 0.00 | 0.00 | 0.00 | 44 | 1014.6 |
| 20260901063029 | 61 | 142 | 5.0 | 9.0 | 0.00 | 0.00 | 0.00 | 42 | 1014.6 |
| 20260901061527 | 61 | 148 | 5.0 | 10.0 | 0.00 | 0.00 | 0.00 | 43 | 1014.6 |
| 20260901060033 | 62 | 121 | 4.0 | 9.0 | 0.00 | 0.00 | 0.00 | 41 | 1014.7 |
| 20260901054535 | 61 | 117 | 5.0 | 8.0 | 0.00 | 0.00 | 0.00 | 43 | 1014.6 |
| 20260901053036 | 62 | 123 | 5.0 | 10.0 | 0.00 | 0.00 | 0.00 | 41 | 1014.7 |
| 20260901051541 | 62 | 145 | 6.0 | 9.0 | 0.00 | 0.00 | 0.00 | 41 | 1014.8 |
| 20260901050032 | 62 | 125 | 6.0 | 9.0 | 0.00 | 0.00 | 0.00 | 41 | 1014.9 |
| 20260901044546 | 62 | 117 | 9.0 | 12.0 | 0.00 | 0.00 | 0.00 | 41 | 1014.9 |
| 20260901043006 | 63 | 148 | 4.0 | 9.0 | 0.00 | 0.00 | 0.00 | 41 | 1014.9 |
| 20260901041510 | 63 | 128 | 6.0 | 10.0 | 0.00 | 0.00 | 0.00 | 41 | 1014.9 |
| 20260901040025 | 65 | 148 | 3.0 | 6.0 | 0.00 | 0.00 | 0.00 | 40 | 1014.9 |
| 20260901034532 | 64 | 132 | 4.0 | 7.0 | 0.00 | 0.00 | 0.00 | 41 | 1014.9 |
| 20260901033037 | 65 | 176 | 4.0 | 6.0 | 0.00 | 0.00 | 0.00 | 42 | 1014.9 |
| 20260901031514 | 66 | 255 | 1.0 | 2.0 | 0.00 | 0.00 | 0.00 | 41 | 1014.7 |
| 20260901030024 | 68 | 138 | 2.0 | 4.0 | 0.00 | 0.00 | 0.00 | 36 | 1014.6 |
| 20260901024511 | 68 | 101 | 1.0 | 3.0 | 0.00 | 0.00 | 0.00 | 36 | 1014.5 |
| 20260901023005 | 68 | 92 | 2.0 | 3.0 | 0.00 | 0.00 | 0.00 | 37 | 1014.6 |
| 20260901021512 | 69 | 82 | 3.0 | 5.0 | 0.00 | 0.00 | 0.00 | 39 | 1014.6 |
| 20260901020032 | 68 | 87 | 4.0 | 4.0 | 0.00 | 0.00 | 0.00 | 43 | 1014.5 |
| 20260901014535 | 69 | 86 | 3.0 | 4.0 | 0.00 | 0.00 | 0.00 | 43 | 1014.5 |
| 20260901013023 | 72 | 93 | 2.0 | 3.0 | 0.00 | 0.00 | 0.00 | 45 | 1014.5 |
| 20260901011518 | 73 | 24 | 2.0 | 5.0 | 0.00 | 0.00 | 0.00 | 37 | 1014.4 |
| 20260901010019 | 74 | 17 | 3.0 | 8.0 | 0.00 | 0.00 | 0.00 | 35 | 1014.4 |
| 20260901004515 | 74 | 360 | 5.0 | 7.0 | 0.00 | 0.00 | 0.00 | 34 | 1014.5 |
| 20260901003019 | 75 | 17 | 4.0 | 7.0 | 0.00 | 0.00 | 0.00 | 34 | 1014.5 |
| 20260901001507 | 75 | 9 | 5.0 | 8.0 | 0.00 | 0.00 | 0.00 | 33 | 1014.7 |
| 20260901000033 | 76 | 340 | 3.0 | 9.0 | 0.00 | 0.00 | 0.00 | 33 | 1014.9 |
| 20260831234529 | 76 | 342 | 6.0 | 9.0 | 0.00 | 0.00 | 0.00 | 29 | 1014.9 |
| 20260831233026 | 76 | 5 | 4.0 | 8.0 | 0.00 | 0.00 | 0.00 | 29 | 1014.9 |
| 20260831231523 | 76 | 342 | 4.0 | 9.0 | 0.00 | 0.00 | 0.00 | 32 | 1015.1 |
| 20260831230019 | 76 | 9 | 5.0 | 9.0 | 0.00 | 0.00 | 0.00 | 30 | 1015.2 |
| 20260831224520 | 76 | 14 | 5.0 | 9.0 | 0.00 | 0.00 | 0.00 | 28 | 1015.4 |
| 20260831223013 | 75 | 13 | 5.0 | 9.0 | 0.00 | 0.00 | 0.00 | 28 | 1015.7 |
| 20260831221510 | 75 | 9 | 4.0 | 8.0 | 0.00 | 0.00 | 0.00 | 30 | 1015.9 |
| 20260831220033 | 74 | 44 | 3.0 | 9.0 | 0.00 | 0.00 | 0.00 | 30 | 1016.1 |
| 20260831214534 | 74 | 291 | 4.0 | 9.0 | 0.00 | 0.00 | 0.00 | 31 | 1016.3 |
| 20260831213032 | 73 | 360 | 4.0 | 7.0 | 0.00 | 0.00 | 0.00 | 29 | 1016.4 |
| 20260831211537 | 73 | 39 | 4.0 | 6.0 | 0.00 | 0.00 | 0.00 | 33 | 1016.6 |
| 20260831210025 | 72 | 30 | 3.0 | 8.0 | 0.00 | 0.00 | 0.00 | 32 | 1016.9 |
| 20260831204524 | 70 | 38 | 4.0 | 8.0 | 0.00 | 0.00 | 0.00 | 36 | 1017.0 |
| 20260831203027 | 70 | 325 | 4.0 | 8.0 | 0.00 | 0.00 | 0.00 | 36 | 1017.2 |
| 20260831201517 | 69 | 13 | 4.0 | 8.0 | 0.00 | 0.00 | 0.00 | 35 | 1017.3 |
| 20260831200034 | 68 | 61 | 3.0 | 8.0 | 0.00 | 0.00 | 0.00 | 41 | 1017.5 |
| 20260831194539 | 67 | 352 | 3.0 | 8.0 | 0.00 | 0.00 | 0.00 | 37 | 1017.6 |
| 20260831193008 | 66 | 21 | 2.0 | 7.0 | 0.00 | 0.00 | 0.00 | 40 | 1017.8 |
| 20260831191507 | 65 | 32 | 3.0 | 6.0 | 0.00 | 0.00 | 0.00 | 39 | 1018.0 |
| 20260831190006 | 64 | 352 | 4.0 | 6.0 | 0.00 | 0.00 | 0.00 | 46 | 1018.2 |
| 20260831184506 | 63 | 40 | 4.0 | 5.0 | 0.00 | 0.00 | 0.00 | 44 | 1018.4 |
| 20260831183010 | 62 | 32 | 2.0 | 5.0 | 0.00 | 0.00 | 0.00 | 41 | 1018.8 |
| 20260831181504 | 61 | 314 | 2.0 | 5.0 | 0.00 | 0.00 | 0.00 | 47 | 1019.2 |
| 20260831180008 | 60 | 30 | 3.0 | 5.0 | 0.00 | 0.00 | 0.00 | 48 | 1019.3 |
| 20260831174508 | 59 | 86 | 3.0 | 5.0 | 0.00 | 0.00 | 0.00 | 45 | 1019.5 |
| 20260831173011 | 58 | 26 | 1.0 | 5.0 | 0.00 | 0.00 | 0.00 | 45 | 1019.8 |
| 20260831171511 | 57 | 352 | 2.0 | 5.0 | 0.00 | 0.00 | 0.00 | 47 | 1020.0 |
| 20260831170008 | 56 | 26 | 3.0 | 5.0 | 0.00 | 0.00 | 0.00 | 52 | 1020.0 |
| 20260831164513 | 55 | 53 | 3.0 | 6.0 | 0.00 | 0.00 | 0.00 | 51 | 1020.3 |
| 20260831163005 | 54 | 346 | 3.0 | 4.0 | 0.00 | 0.00 | 0.00 | 52 | 1020.2 |
| 20260831161504 | 53 | 346 | 2.0 | 4.0 | 0.00 | 0.00 | 0.00 | 51 | 1020.4 |
| 20260831160016 | 53 | 9 | 1.0 | 4.0 | 0.00 | 0.00 | 0.00 | 50 | 1020.6 |
| 20260831154544 | 52 | 27 | 1.0 | 2.0 | 0.00 | 0.00 | 0.00 | 52 | 1020.7 |
| 20260831153016 | 51 | 352 | 1.0 | 3.0 | 0.00 | 0.00 | 0.00 | 53 | 1020.8 |
| 20260831151514 | 50 | 26 | 1.0 | 3.0 | 0.00 | 0.00 | 0.00 | 53 | 1020.9 |
| 20260831150010 | 49 | 82 | 1.0 | 3.0 | 0.00 | 0.00 | 0.00 | 54 | 1020.8 |
| 20260831144507 | 48 | 352 | 0.0 | 2.0 | 0.00 | 0.00 | 0.00 | 54 | 1020.8 |
| 20260831143007 | 47 | 111 | 0.0 | 2.0 | 0.00 | 0.00 | 0.00 | 58 | 1020.8 |
| 20260831141503 | 46 | 115 | 1.0 | 2.0 | 0.00 | 0.00 | 0.00 | 61 | 1020.6 |
| 20260831140019 | 45 | 95 | 1.0 | 2.0 | 0.00 | 0.00 | 0.00 | 62 | 1020.5 |
| 20260831134526 | 44 | 245 | 0.0 | 3.0 | 0.00 | 0.00 | 0.00 | 59 | 1020.4 |
| 20260831133026 | 43 | 227 | 1.0 | 2.0 | 0.00 | 0.00 | 0.00 | 62 | 1020.3 |
| 20260831131518 | 43 | 209 | 1.0 | 3.0 | 0.00 | 0.00 | 0.00 | 60 | 1020.1 |
| 20260831130013 | 43 | 260 | 0.0 | 2.0 | 0.00 | 0.00 | 0.00 | 63 | 1020.0 |
| 20260831124514 | 43 | 260 | 0.0 | 2.0 | 0.00 | 0.00 | 0.00 | 63 | 1020.1 |
| 20260831123010 | 44 | 281 | 1.0 | 2.0 | 0.00 | 0.00 | 0.00 | 59 | 1019.9 |
| 20260831121524 | 44 | 126 | 3.0 | 4.0 | 0.00 | 0.00 | 0.00 | 56 | 1020.0 |
| 20260831120037 | 45 | 122 | 3.0 | 4.0 | 0.00 | 0.00 | 0.00 | 56 | 1019.8 |
| 20260831114528 | 45 | 205 | 1.0 | 3.0 | 0.00 | 0.00 | 0.00 | 58 | 1019.7 |
| 20260831113024 | 45 | 221 | 0.0 | 3.0 | 0.00 | 0.00 | 0.00 | 59 | 1019.6 |
| 20260831111526 | 46 | 226 | 1.0 | 2.0 | 0.00 | 0.00 | 0.00 | 56 | 1019.6 |
| 20260831110030 | 47 | 200 | 0.0 | 5.0 | 0.00 | 0.00 | 0.00 | 55 | 1019.5 |
| 20260831104527 | 49 | 231 | 3.0 | 9.0 | 0.00 | 0.00 | 0.00 | 52 | 1019.4 |
| 20260831103012 | 47 | 152 | 1.0 | 4.0 | 0.00 | 0.00 | 0.00 | 52 | 1019.4 |
| 20260831101516 | 47 | 250 | 0.0 | 4.0 | 0.00 | 0.00 | 0.00 | 54 | 1019.3 |
| 20260831100007 | 48 | 234 | 4.0 | 9.0 | 0.00 | 0.00 | 0.00 | 52 | 1019.4 |
| 20260831094503 | 50 | 169 | 5.0 | 11.0 | 0.00 | 0.00 | 0.00 | 47 | 1019.3 |
| 20260831093004 | 49 | 143 | 6.0 | 10.0 | 0.00 | 0.00 | 0.00 | 48 | 1019.4 |